Regional Weather Roundup
Issued by NWS Albany, NY

Home | Current Version | Previous Version | Text Only | Print | Product List | Glossary On
Versions: 1 2 3 4 5 6 7 8 9 10 11 12 13 14 15 16 17 18 19 20 21 22 23 24 25 26 27 28 29 30 31 32 33 34 35 36 37 38 39 40 41 42 43 44 45 46 47 48 49 50
000
ASUS41 KALY 252310
RWRALY

NEW YORK STATE HOURLY WEATHER ROUNDUP
NATIONAL WEATHER SERVICE ALBANY NY
700 PM EDT FRI JUL 25 2014

NOTE: "FAIR" INDICATES FEW OR NO CLOUDS BELOW 12,000 FEET WITH NO
SIGNIFICANT WEATHER AND/OR NO OBSTRUCTIONS TO VISIBILITY.

NYZ032-033-038>043-046>054-057>066-NYZ062>081-260000-
EAST


CITY           SKY/WX    TMP DP  RH WIND       PRES   REMARKS
ALBANY         MOSUNNY   78  57  48 W6        29.94S
GLENS FALLS    SUNNY     76  56  49 SW8       29.93R
POUGHKEEPSIE   SUNNY     78  57  48 S3        29.96S
MONTGOMERY     SUNNY     77  57  50 S6        29.97S
WHITE PLAINS   MOSUNNY   75  56  51 CALM      29.98S
ISLIP          MOSUNNY   76  57  51 SW7       29.97R
NEW YORK CITY  MOSUNNY   79  58  48 S10       29.96S
CENTRAL PARK     N/A     77  55  47 MISG        N/A
$$

NYZ005>009-017-018-044>046-055-056-260000-
CENTRAL


CITY           SKY/WX    TMP DP  RH WIND       PRES   REMARKS
FULTON         SUNNY     71  57  61 NW6       29.98R
SYRACUSE       MOSUNNY   77  54  44 SW9       29.96S
ROME           SUNNY     73  53  49 W7        29.97F
ELMIRA         SUNNY     76  54  46 N3        29.98S
BINGHAMTON     SUNNY     71  54  54 W6        30.01S
MONTICELLO     SUNNY     73  54  49 SW3       30.02S
$$

NYZ026>034-041>043-260000-
NORTH


CITY           SKY/WX    TMP DP  RH WIND       PRES   REMARKS
WATERTOWN      SUNNY     71  53  52 SW9       29.96S
FORT DRUM      NOT AVBL
MASSENA        SUNNY     72  57  59 SW15      29.90F
SARANAC LAKE   SUNNY     68  50  52 W9        29.95S
PLATTSBURGH    SUNNY     75  58  55 CALM      29.89R
$$

NYZ001>004-010>016-019>021-260000-
WEST


CITY           SKY/WX    TMP DP  RH WIND       PRES   REMARKS
NIAGARA FALLS  PTSUNNY   71  55  56 SW13G22   29.97F
BUFFALO        PTSUNNY   70  54  56 SW15      29.99S
DUNKIRK        MOSUNNY   70  54  56 W8        30.01S
JAMESTOWN      PTSUNNY   68  54  60 NW6       30.04S
WELLSVILLE     MOSUNNY   71  48  43 SW5       30.04F
ROCHESTER      PTSUNNY   73  56  54 NE3       29.98R
PENN YAN       MOSUNNY   75  54  47 S5        29.99S
$$

             KEY
       WCI = WIND CHILL INDEX
       VSB = VISIBILITY
       HX  = HEAT INDEX
$$



USA.gov is the U.S. government's official web portal to all federal, state and local government web resources and services.